Location: ?
(35.3544°N, 139.4507°E)
Time: 06:07:47
(UTC+00:00)

Cosmos 2279 Rocket - Pass Details

Date: 03 August 2024
Orbit: 963 x 978 km, 82.9° (Epoch: 09 September)

Event Time Altitude Azimuth Distance (km) Brightness Sun altitude
Exits shadow 17:16:35 43° 286° (WNW) 1,345 4.5 -26.8°
Drops below altitude 10° 17:22:19 10° 352° (N) 2,734 6.8 -26.0°
Sets 17:24:59 0° 359° (N) 3,686 7.7 -25.6°
